Regional Weather Roundup
Issued by NWS Upton, NY

Home | Current Version | Previous Version | Text Only | Print | Product List | Glossary On
Versions: 1 2 3 4 5 6 7 8 9 10 11 12 13 14 15 16 17 18 19 20 21 22 23 24 25 26 27 28 29 30 31 32 33 34 35 36 37 38 39 40 41 42 43 44 45 46 47 48 49 50
000
ASUS41 KOKX 240409
RWROKX

Regional Weather Roundup
National Weather Service New York NY
1100 PM EST TUE JAN 23 2018

Note: "FAIR" indicates few or no clouds below 12,000 feet with no
significant weather and/or obstructions to visibility.

NYZ071-072-176-178-NJZ106-104-240500-
New York City Metro Area

CITY           SKY/WX    TMP DP  RH WIND       PRES   REMARKS
Central Park   FAIR      45  28  51 VRB6G21   29.75R
Bronx Bot Gard   N/A     45  28  53 W15       29.73R
Bronx Lehman C NOT AVBL
LaGuardia Arpt FAIR      46  28  49 W16G26    29.73R
Queens College NOT AVBL
Kennedy Intl   FAIR      44  30  57 W18G24    29.75R
Breezy Point     N/A     43 N/A N/A W15G23      N/A
Brooklyn Coll  NOT AVBL
Staten Island  NOT AVBL
Newark/Liberty FAIR      44  28  53 W13G23    29.74R
Teterboro      FAIR      44  29  55 W20       29.72R
$$

NYZ177-179-078>081-240500-
Long Island New York

CITY           SKY/WX    TMP DP  RH WIND       PRES   REMARKS
Jones Beach      N/A     43 N/A N/A W15G21      N/A
Wantagh        NOT AVBL
Matinecock Pt    N/A     43 N/A N/A W18         N/A
Farmingdale    FAIR      45  29  53 W14G22    29.72R
MacArthur/ISP  FAIR      46  29  51 W13       29.70R
Shirley        FAIR      43  31  62 W9        29.70R
Mt Sinai Harb    N/A    N/A N/A N/A W9G18       N/A
Westhampton    FAIR      41  32  70 W9        29.70R
East Hampton   FAIR      44  35  70 W12G18    29.66R
Southold       NOT AVBL
Montauk          N/A     46  35  65 W12G21    29.66R
$$

NYZ052-065-067-240500-
Hudson Valley

CITY           SKY/WX    TMP DP  RH WIND       PRES   REMARKS
White Plains   FAIR      42  27  55 W10       29.69R
Larchmont Harb   N/A     45 N/A N/A SW13        N/A
Croton On Huds   N/A     43 N/A N/A W7          N/A
Somers         NOT AVBL
Brewster       NOT AVBL
Newburgh       CLEAR     39  32  75 W9        29.69R WCI  33
Montgomery     FAIR      38  29  70 S8        29.68R WCI  32
Otisville      NOT AVBL
Warwick        NOT AVBL
Suffern        NOT AVBL
Poughkeepsie   FAIR      40  30  67 S3        29.69R
Albany         FAIR      38  31  76 SW6       29.64S WCI  33
$$

NJZ001-105-106-008-010-013-015-019>022-104-240500-
New Jersey

CITY           SKY/WX    TMP DP  RH WIND       PRES   REMARKS
Newark/Liberty FAIR      44  28  53 W13G23    29.74R
Teterboro      FAIR      44  29  55 W20       29.72R
Caldwell       FAIR      43  28  55 W8        29.74R
Somerville     CLOUDY    43  29  57 VRB6      29.74R
Linden         FAIR      44  28  52 NW13G22   29.75R
Perth Amboy      N/A     45 N/A N/A W15         N/A
Sussex         CLOUDY    40  29  64 SW5       29.71S
Andover          N/A     41  29  62 VRB7      29.73R
Trenton        FAIR      44  28  53 W8        29.76S
Millville      FAIR      43  32  65 W9        29.82R
Atlantic City  FAIR      44  33  65 W7        29.80R
Wrightstown    FAIR      43  32  63 NW8       29.75R
Toms River     FAIR      39  33  79 W5        29.78R
Belmar         FAIR      43  30  60 W13       29.77
$$

PAZ047>061-062-071-240500-
Eastern Pennsylvania

CITY           SKY/WX    TMP DP  RH WIND       PRES   REMARKS
Philadelphia   FAIR      45  29  53 W12       29.80R
Allentown      CLOUDY    44  29  55 W10       29.76S
Scranton       CLOUDY    40  29  64 SW13      29.72R WCI  32
$$

CTZ002-004>006-009-010-012-RIZ004-006-007-MAZ004-011-015-240500-
Southern New England

 In CT

CITY           SKY/WX    TMP DP  RH WIND       PRES   REMARKS
Bradley Intl   MOCLDY    35  35 100 CALM      29.64R
Hartford       FAIR      34  34 100 CALM      29.65R FOG
Danbury        FAIR      42  30  62 W8        29.69R
Wtrbury/Oxford FAIR      41  31  67 W8G16     29.66R
Norwalk Harbor   N/A     43 N/A N/A W13         N/A
Bridgeport     FAIR      43  31  62 W10       29.69R
Meriden        FAIR      44  31  60 W8        29.66R
New Haven      FAIR      45  32  60 W7        29.67R
Chester        FAIR      45  32  61 W9G21     29.64
Groton         FAIR      43  37  79 W7        29.63R
Willimantic    CLOUDY    44  39  82 NW6       29.63R

 In RI

CITY           SKY/WX    TMP DP  RH WIND       PRES   REMARKS
Providence     MOCLDY    46  42  86 W6        29.61R
Block Island   FAIR      43  38  82 W17G23    29.64R
Westerly       FAIR      43  40  89 SW9       29.63R

In MA

CITY           SKY/WX    TMP DP  RH WIND       PRES   REMARKS
Boston         FAIR      43  36  76 W17G26    29.58R
Worcester      FAIR      37  31  78 W13       29.58R WCI  29
Westfield      MOCLDY    31  31 100 SE3       29.62R FOG
Provincetown   FAIR      41  40  96 W12       29.58
Nantucket      FAIR      43  43 100 W15       29.60R
$$

ANZ330-335-338-340-345-350-353-355-240500-
Coastal Marine Observations


STATION/POSITION TIME  SKY/WX   TEMP    WIND        PRES    VSBY  WAVE
                                AIR SEA DIR/SP/G                  HT/PER
                 (UTC)          (F)     (DEG/KT/KT) (MB)    (MI)  (FT/S)
NY Harb Entrance 0250            44 40  290/ 14/ 17 1006.3          5/ 8
20 S Fire Island 0350            44 42  280/ 17/ 21 1006.7          8/ 9
15 E Barnegat Li 0330               42                N/A           8/ 8
Hudson Canyon    0250            51 49  290/ 19/ 23 1006.0         11/ 9
Kings Point      0336            44 36  320/ 16/ 19 1007.3
Execution Rocks  NOT AVBL
Western LI Sound NOT AVBL
Central LI Sound NOT AVBL
Robbins Reef     0336            45     270/ 17/ 19 1007.5
$$


>>>>>>>>>>>>>>>>>>>>>>>>>>>> KEY <<<<<<<<<<<<<<<<<<<<<<<<<<<
>                                                          <
>     SKY/WX - Sky Condition/Present Weather               <
>     TMP    - Temperature in Fahrenheit                   <
>     DP     - Dew Point in Fahrenheit                     <
>     RH     - Relative Humidity in Percent                <
>     WIND   - Direction (from) and Speed in MPH           <
>     PRES   - Mean Sea Level Pressure (inches of Hg)      <
>     WCI    - Wind Chill Index                            <
>     VSB    - Visibility in Miles                         <
>     HX     - Heat Index                                  <
>     TC     - Temperature in Celsius                      <
>     VRB    - Varibale Wind Direction                     <
>                                                          <
>>>>>>>>>>>>>>>>>>>>>>>>>>>> KEY <<<<<<<<<<<<<<<<<<<<<<<<<<<



USA.gov is the U.S. government's official web portal to all federal, state and local government web resources and services.